Flag Weather past 2 weeks in Karachi, Pakistan

Now
86 °F

Overcast.


Feels Like: 84 °F
Forecast: 81 / 90 °F
Wind: 10 mph from Northeast

Location: Karachi Airport

Current Time: Oct 30, 2014 at 7:16:14 PM

Latest Report: Oct 30, 2014 at 6:25 PM


Visibility: 2 mi

Pressure: 29.86 "Hg

Humidity: 33%

Dew point: 54 °F

Location of KarachiLocation

Historic Weather in Karachi — Graph

°F

Karachi temperature yesterday

Maximum temperature yesterday: 93 °F (at 12:25 PM)
Minimum temperature yesterday: 72 °F (at 5:55 AM)
Average temperature yesterday: 83 °F

Past Weeks' High & Low Weather Summary

 TemperatureHumidityPressure
High100 °F (Oct 26, 12:55 PM)89% (Oct 20, 7:55 AM)30.01 "Hg (Oct 20, 7:55 AM)
Low66 °F (Oct 25, 4:55 AM)9% (Oct 25, 12:25 PM)29.62 "Hg (Oct 18, 12:25 PM)
Average83 °F42%29.91 "Hg
* Reported Oct 15 5:25 PM — Oct 30 5:55 PM, Karachi, Weather by CustomWeather, © 2014

Note: Actual official high and low records may vary slightly from our data, if they occured in-between our weather recording intervals... More about our weather records

Advertising

Karachi weather history for previous 24 hours

 ConditionsComfort  
Time TempWeatherWind HumidityBarometerVisibility
5:55 PM
Oct 30
86 °FOvercast.10 mph33%29.86 "Hg2 mi
5:25 PM86 °FOvercast.12 mph31%29.86 "Hg2 mi
4:55 PM86 °FOvercast.9 mph33%29.86 "Hg2 mi
4:25 PM88 °FOvercast.13 mph29%29.86 "Hg2 mi
3:55 PM88 °FOvercast.7 mph31%29.86 "Hg2 mi
3:25 PM88 °FOvercast.12 mph31%29.86 "Hg2 mi
2:55 PM90 °FOvercast.12 mph29%29.86 "Hg2 mi
2:25 PM90 °FOvercast.8 mph29%29.86 "Hg2 mi
1:55 PM90 °FOvercast.12 mph29%29.86 "Hg2 mi
1:25 PM88 °FOvercast.9 mph35%29.86 "Hg2 mi
12:55 PM88 °FBroken clouds.8 mph33%29.89 "Hg2 mi
12:25 PM88 °FBroken clouds.7 mph33%29.89 "Hg3 mi
11:55 AM90 °FBroken clouds.7 mph27%29.89 "Hg3 mi
11:25 AM88 °FBroken clouds.6 mph33%29.92 "Hg3 mi
10:55 AM88 °FBroken clouds.9 mph33%29.92 "Hg3 mi
10:25 AM86 °FBroken clouds.12 mph38%29.92 "Hg3 mi
9:55 AM84 °FBroken clouds.No wind40%29.92 "Hg3 mi
9:25 AM82 °FBroken clouds.5 mph42%29.95 "Hg3 mi
8:55 AM81 °FBroken clouds.No wind42%29.92 "Hg2 mi
8:25 AM81 °FMostly cloudy.3 mph42%29.92 "Hg3 mi
7:55 AM79 °FMostly cloudy.2 mph42%29.92 "Hg3 mi
7:25 AM79 °FMostly cloudy.No wind42%29.89 "Hg3 mi
6:55 AM77 °FMostly cloudy.6 mph44%29.89 "Hg4 mi
6:25 AM77 °FPartly cloudy.5 mph44%29.89 "Hg4 mi
5:55 AM77 °FPartly cloudy.5 mph44%29.89 "Hg4 mi
5:25 AM75 °FPartly cloudy.No wind47%29.89 "Hg4 mi
4:55 AM77 °FPartly cloudy.No wind44%29.89 "Hg4 mi
4:25 AM77 °FPartly cloudy.5 mph44%29.89 "Hg4 mi
3:55 AM77 °FPartly cloudy.5 mph47%29.89 "Hg4 mi
3:25 AM77 °FPartly cloudy.3 mph47%29.89 "Hg4 mi
2:55 AM77 °FPartly cloudy.2 mph47%29.89 "Hg4 mi
2:25 AM77 °FPartly cloudy.No wind47%29.89 "Hg4 mi
1:55 AM79 °FPartly cloudy.3 mph48%29.89 "Hg4 mi
1:25 AM79 °FPartly cloudy.3 mph48%29.89 "Hg4 mi
12:55 AM79 °FThundershowers. Partly cloudy.3 mph48%29.89 "Hg4 mi
12:25 AM79 °FThundershowers. Partly cloudy.3 mph48%29.92 "Hg4 mi
11:55 PM
Oct 29
79 °FPartly cloudy.3 mph48%29.92 "Hg4 mi
11:25 PM81 °FPartly cloudy.No wind45%29.92 "Hg4 mi
10:55 PM81 °FPartly cloudy.No wind42%29.92 "Hg4 mi
10:25 PM81 °FPartly cloudy.No wind42%29.92 "Hg4 mi
9:55 PM82 °FPartly cloudy.No wind37%29.92 "Hg4 mi
9:25 PM82 °FPartly cloudy.No wind37%29.92 "Hg4 mi
8:55 PM82 °FMostly cloudy.No wind37%29.92 "Hg4 mi
Weather by CustomWeather, © 2014

See weather overviewHow to use our weather pages